Weather in Lubimovka

Ukraine / Kherson District     46°33′21″N   34°31′47″E
temp.,
°C
wind,
m/s
gust,
m/s
humid.,
%
clouds,
%
prec.,
mm/h
press.,
hPa
HPBL,
m
12 may, wed
wed1200:00+7nne33790 0.0 101430
03:00+6nne23875 0.0 101424
06:00+6n128595 0.0 101440
09:00+10w227077 0.0 1013429
12:00+13wnw245395 0.1 10131647
15:00+14wsw235590 0.1 10131084
18:00+15w23474 0.0 10131500
21:00+9sse34825 0.0 101344
13 may, thu
thu1300:00+9e228762 0.0 101314
03:00+9ene339092 0.0 101251
06:00+10e339523 0.0 101358
09:00+17ese456417 0.0 1013677
12:00+20ese565089 0.0 1012978
15:00+21ese6753100 0.0 1011960
18:00+19ese57585 0.0 1011616
21:00+14e498893 0.0 1011147
14 may, fri
fri1400:00+13ese359271 0.0 101075
03:00+12ssw22874 0.0 101017
06:00+12wnw11876 0.0 101011
09:00+19w2356100 0.0 1010353
12:00+24ssw3435100 0.0 1011899
15:00+25sw343697 0.0 10101106
18:00+25sw3445100 0.0 1010703
21:00+17wsw35690 0.0 101161
15 may, sat
sat1500:00+14wsw458443 0.0 101285
03:00+13w34915 0.0 101271
06:00+13wsw34845 0.0 101368
09:00+20wsw3460100 0.0 1013477
12:00+24sw344315 0.0 10131570
15:00+25sw443837 0.0 10131957
18:00+24sw434345 0.0 10131525
21:00+17ssw336962 0.0 101329
16 may, sun
sun1600:00+16n0069100 0.0 101211
03:00+15ene2271100 0.0 101214
06:00+15ene3576100 0.0 101190
09:00+21e4652100 0.0 1011465
12:00+26e5636100 0.0 10091161
15:00+28e68325 0.0 10081349
18:00+26ese594427 0.0 1006676
21:00+20e347110 0.0 100639